Wetbulb
62.63 58.50 58.34 56.14 46.65 46.51 45.83 49.34 54.75 54.88 59.14 61.97 62.75 62.63 61.34 62.64 60.44 58.10 71.83 74.57 74.86 74.84 76.80 77.62 78.30 78.46 77.68 77.37 77.16 76.50 76.18 76.35 76.35 76.60 76.75 76.97 77.10 77.13 76.76 76.46 76.64 76.57 75.74 75.12 74.42 74.13 74.03 73.80 74.08
58.60 59.23 55.86 51.64 43.07 39.38 44.44 52.22 52.72 55.48 59.15 64.00 63.36 63.22 62.42 59.45 66.35 66.19 71.37 74.83 75.32 75.36 75.36 76.73 77.94 78.02 77.67 77.39 76.93 76.30 76.23 76.40 76.35 76.55 76.80 76.92 76.97 77.20 76.78 76.44 76.16 76.13 74.96 74.60 74.65 74.43 74.04 73.82 73.76
61.94 59.18 49.13 46.25 43.05 41.70 44.11 52.05 54.45 57.25 59.86 59.12 64.91 65.22 62.64 61.82 67.00 69.53 73.84 75.21 74.88 74.21 75.24 76.95 77.89 77.64 77.67 77.21 76.55 76.28 76.25 76.27 76.47 76.68 76.73 76.83 76.87 76.87 76.63 76.36 75.69 75.31 74.17 74.22 74.55 74.59 74.69 74.51 74.28
56.91 53.45 50.71 43.12 42.27 47.69 50.35 53.64 55.59 57.14 60.51 59.29 65.17 62.39 64.91 67.01 69.33 70.75 74.65 75.39 73.89 74.12 75.44 77.16 77.42 77.53 77.41 77.01 76.56 76.33 76.43 76.38 76.40 76.60 76.73 76.75 76.70 76.59 76.09 76.09 75.46 74.99 74.60 74.26 74.67 74.80 74.93 74.81 74.73
53.95 50.82 42.46 41.31 45.02 50.36 53.47 55.27 56.46 55.97 58.70 59.97 63.13 61.23 62.46 65.45 71.69 73.24 74.11 74.65 73.41 74.14 75.51 76.68 77.22 77.33 77.29 77.07 76.78 76.60 76.38 76.22 76.47 76.68 76.73 76.43 76.35 76.14 75.92 75.88 75.49 74.95 74.97 74.88 74.62 74.99 74.56 74.31 74.16
48.03 48.67 39.25 39.22 45.40 51.28 54.51 56.79 56.78 56.97 58.83 60.22 64.43 62.03 63.06 68.68 69.88 73.03 73.83 73.23 73.92 74.05 75.05 76.05 77.30 77.02 76.92 76.96 76.78 76.25 76.02 76.07 76.40 76.37 76.30 76.19 75.92 75.79 75.75 75.56 75.34 74.91 74.63 75.03 75.24 74.91 74.49 74.16 73.74
46.41 43.41 40.16 42.68 45.91 49.14 53.26 57.02 56.23 57.68 58.04 59.56 68.18 63.80 64.88 68.52 71.16 72.81 72.84 72.95 74.45 73.75 73.94 75.08 75.89 76.81 77.22 76.74 76.44 76.06 75.81 75.93 76.06 75.85 75.88 75.76 75.69 75.57 75.32 75.30 75.18 74.56 74.14 74.36 74.76 74.68 74.41 73.96 73.76
49.43 45.55 42.66 44.75 45.43 47.66 54.31 56.36 59.06 58.45 59.02 63.78 67.97 64.29 62.75 67.66 71.05 71.83 72.13 73.35 72.70 72.45 72.81 73.51 74.63 75.70 75.81 75.84 76.46 76.11 75.83 75.98 75.69 75.57 75.52 75.40 75.33 75.11 75.14 74.36 74.57 74.59 73.99 74.04 74.34 74.46 74.30 73.88 73.51
50.18 43.84 42.17 44.19 45.88 49.11 55.21 55.33 59.92 61.66 58.39 58.76 67.16 68.02 68.90 70.22 70.46 69.26 71.84 71.78 70.82 71.55 71.53 72.08 72.79 73.59 74.18 74.78 75.92 76.07 76.52 76.25 75.87 75.72 75.34 74.39 72.75 73.15 74.02 74.12 74.37 74.58 74.24 73.89 74.04 74.21 73.80 73.60 73.55
45.32 42.19 44.26 48.34 49.87 49.83 53.29 55.58 55.70 57.66 55.58 57.23 64.05 69.66 70.67 70.74 70.65 69.38 69.10 69.71 69.46 69.19 70.08 70.94 70.97 71.26 71.68 74.32 74.26 73.85 74.77 74.72 74.02 73.68 73.70 72.05 70.13 71.15 72.47 72.92 74.41 74.56 74.33 73.89 73.64 73.53 73.41 73.21 69.07
45.61 42.89 46.97 49.27 51.56 52.98 53.61 55.79 58.62 54.98 51.82 54.66 54.99 61.31 68.79 67.79 67.66 68.78 68.87 70.43 69.67 69.99 70.03 69.90 70.14 70.05 69.76 70.76 71.69 71.27 71.75 71.36 71.36 71.02 71.99 70.05 70.06 70.71 70.80 69.68 71.51 71.59 73.44 70.72 71.63 71.16 70.39 68.28 66.17
42.79 47.28 48.26 49.88 52.22 52.14 52.68 54.77 56.83 55.96 54.39 57.27 58.59 60.43 67.53 66.84 65.86 66.69 67.96 69.76 70.24 69.98 70.06 70.00 69.85 69.49 69.00 70.49 69.07 69.00 69.33 68.65 68.29 69.07 70.74 68.82 68.16 68.16 68.47 70.70 70.08 70.13 69.75 68.72 66.85 67.61 67.58 66.93 65.62
44.57 46.23 48.30 50.33 51.36 50.19 54.27 52.90 53.20 55.09 57.10 57.80 58.72 59.01 60.50 65.62 66.25 64.62 66.72 68.67 67.55 69.64 69.80 69.95 70.04 69.86 69.86 69.65 68.87 69.44 68.97 68.92 68.66 68.96 70.80 69.29 68.04 67.89 69.52 68.92 69.74 69.69 68.91 68.39 66.52 67.30 67.24 66.75 66.02
45.47 45.81 47.33 48.96 49.86 52.82 50.79 53.02 53.47 54.77 57.06 56.24 57.20 57.21 58.65 63.68 65.14 66.49 67.17 67.38 68.15 67.91 69.20 70.50 70.15 70.15 71.72 70.54 69.35 69.77 70.00 69.79 69.63 69.55 71.21 70.61 69.47 68.48 70.85 69.25 70.38 69.87 68.90 68.52 68.94 69.31 67.99 68.02 68.42
46.26 42.51 45.85 47.58 48.86 49.84 52.41 49.88 50.69 55.26 55.45 54.25 55.62 56.75 58.75 60.33 62.75 63.54 66.43 66.78 67.49 66.86 66.42 67.45 69.78 71.01 72.65 72.25 70.87 70.32 71.36 70.73 70.59 70.46 70.83 71.53 71.68 70.75 73.06 71.88 71.19 71.14 71.78 71.27 71.30 71.23 71.31 70.81 71.02
42.49 41.97 38.81 45.47 48.42 51.52 51.18 44.67 51.86 54.85 54.43 53.51 55.20 56.16 58.00 58.32 58.88 61.36 65.33 67.51 66.40 64.92 64.91 66.11 69.11 70.04 72.84 73.04 73.64 72.71 72.04 72.02 72.21 72.42 72.25 72.02 72.99 73.57 73.21 72.27 72.19 72.47 71.35 68.38 66.64 67.06 65.35 66.63 70.24
40.31 36.36 38.71 41.84 50.45 50.51 49.37 44.57 50.94 54.10 53.90 54.42 54.99 55.03 56.45 57.52 58.16 61.80 66.14 67.96 67.76 65.22 63.94 65.41 66.13 67.11 71.68 73.60 74.26 73.40 73.08 72.71 72.22 72.80 74.54 72.93 73.67 73.97 72.72 72.82 72.14 71.96 69.18 66.75 65.54 63.35 66.24 64.79 68.52
35.99 36.54 39.47 40.22 47.35 48.17 46.67 46.45 51.16 53.77 53.83 53.83 53.99 55.42 56.01 56.67 56.47 60.00 65.07 66.67 67.28 64.53 64.40 64.58 66.48 65.45 65.81 74.37 74.31 73.40 73.23 73.96 73.69 73.57 74.46 74.93 75.07 74.36 73.11 72.38 72.82 71.88 69.58 65.74 65.63 62.14 62.91 65.66 67.22
41.17 39.76 38.64 44.57 48.83 46.85 46.17 46.53 48.77 52.92 53.46 53.37 53.23 54.16 54.56 55.27 56.78 58.17 62.14 64.44 64.40 64.04 64.36 64.27 64.62 64.60 65.06 74.01 73.60 73.12 71.92 72.98 72.94 74.53 73.47 73.87 74.82 74.94 73.13 71.96 71.69 71.60 70.21 69.42 67.87 68.31 69.52 68.03 67.40
41.37 39.45 38.73 45.63 48.94 47.41 45.80 45.71 49.44 51.57 54.00 54.59 53.61 53.58 53.95 53.75 56.07 57.15 60.15 60.33 61.60 63.15 63.87 63.41 66.55 67.35 67.25 74.27 74.57 73.32 73.01 73.09 73.39 72.62 73.39 73.86 73.55 73.04 73.24 72.14 71.33 71.70 70.56 69.45 70.03 68.79 67.18 65.55 65.03
40.32 39.33 40.42 42.02 47.49 49.33 46.61 42.85 45.21 49.58 53.66 54.43 55.02 55.25 55.75 54.39 55.18 55.40 56.37 58.82 60.17 60.37 62.03 63.10 65.57 72.42 73.43 74.21 74.02 72.47 71.34 69.91 71.08 70.62 71.55 72.89 73.69 73.25 72.92 72.63 71.65 70.49 69.20 70.03 70.16 67.76 65.53 62.82 62.99
37.67 43.58 45.36 45.02 43.54 38.60 46.21 33.18 42.72 46.70 48.02 51.68 52.90 54.16 54.92 53.96 54.28 54.60 55.20 54.20 57.81 62.95 65.04 65.83 66.61 68.06 71.79 71.78 71.72 69.06 67.02 67.94 67.15 70.23 71.94 72.23 73.14 72.08 72.54 71.88 71.11 69.97 68.28 65.69 66.29 67.81 65.26 62.77 59.92
40.38 44.29 43.24 44.66 41.11 40.51 42.44 38.21 42.43 47.50 47.54 47.92 50.45 53.26 54.86 53.80 53.45 54.43 55.41 55.95 56.51 61.04 62.12 64.47 65.72 68.14 69.47 70.49 70.73 69.16 67.75 67.67 68.14 68.98 71.19 71.35 71.74 72.03 72.73 71.47 69.63 67.87 66.60 65.02 64.52 63.42 62.88 62.82 61.69
45.22 42.54 42.87 43.17 41.09 33.74 38.82 39.92 39.76 43.02 47.79 46.74 48.65 52.40 54.90 55.53 55.02 54.92 54.49 58.24 60.06 59.83 62.71 64.79 66.10 65.51 69.21 70.40 69.70 70.34 70.62 68.61 68.00 68.50 69.95 70.28 70.49 70.86 70.16 69.42 67.47 66.76 65.02 63.89 62.21 62.52 62.23 62.33 60.99
42.49 37.98 32.40 31.25 31.14 30.86 40.45 39.62 41.09 45.81 48.00 48.15 48.19 50.94 52.45 55.14 56.42 53.54 54.72 58.23 60.20 60.79 61.45 63.56 67.51 68.68 67.84 71.28 70.74 70.01 69.77 69.29 70.10 68.09 67.90 66.64 65.87 65.43 66.31 65.87 65.65 66.10 64.20 63.20 61.93 61.82 61.49 61.88 61.28
39.38 37.70 30.74 26.15 28.59 33.35 40.56 36.02 40.53 48.33 50.09 50.19 50.38 50.23 50.57 51.94 52.72 55.95 59.21 60.34 61.14 61.79 63.73 63.03 65.16 66.62 68.05 68.50 69.43 69.43 69.18 69.62 69.10 67.30 66.28 65.00 64.61 64.68 64.57 65.78 65.24 64.84 64.68 63.25 63.08 61.92 61.77 60.75 60.15
39.35 36.26 39.88 35.06 37.61 31.56 35.45 42.31 48.11 48.85 48.41 49.27 49.41 50.06 51.16 52.23 55.84 59.32 60.30 61.60 61.87 63.38 63.67 64.62 64.96 65.55 65.39 64.92 65.99 67.74 68.61 66.45 64.24 65.63 64.26 65.91 64.97 65.79 64.02 64.47 64.65 64.25 64.49 63.33 62.03 61.40 60.19 60.45 60.21
41.65 43.26 35.08 37.61 30.01 27.72 36.53 38.70 39.71 44.99 45.91 48.15 50.47 50.66 51.47 53.67 57.14 57.72 59.15 60.47 61.18 60.88 61.65 62.00 61.83 61.28 61.52 61.27 62.21 62.12 61.90 63.28 62.14 62.42 61.61 62.38 62.77 63.40 64.31 65.01 64.68 64.20 63.75 62.76 62.64 62.14 61.32 60.45 60.75
39.54 38.55 39.63 40.30 38.21 32.86 31.64 36.29 45.76 46.75 47.66 47.93 50.48 51.84 51.04 53.64 56.76 57.65 58.31 60.22 59.49 58.24 57.65 59.70 58.62 57.72 58.08 59.07 58.63 58.42 58.59 60.14 60.23 59.63 59.08 59.09 59.28 60.04 61.64 62.24 61.45 62.43 63.69 63.86 62.88 61.73 61.20 60.87 60.57
42.07 39.93 40.78 34.61 33.58 38.61 37.82 37.26 48.88 49.45 50.94 51.01 50.79 51.25 51.49 52.45 53.04 53.65 57.00 58.01 57.34 55.77 56.20 55.34 55.73 55.55 55.47 57.59 58.31 57.22 57.29 57.31 57.14 56.96 57.42 58.86 58.82 59.55 59.07 60.07 59.77 60.30 60.41 60.08 60.63 61.57 62.68 61.47 60.54
MSLP
1009.58 1009.09 1008.97 1009.26 1009.75 1008.73 1007.42 1005.58 1004.05 1002.56 1002.03 1002.39 1001.49 1002.62 1004.99 1005.44 1006.57 1007.76 1006.80 1006.60 1007.18 1008.11 1008.63 1009.06 1009.27 1009.65 1009.93 1010.39 1011.00 1011.30 1011.55 1011.70 1012.09 1012.63 1013.09 1013.30 1013.50 1013.70 1013.88 1014.06 1014.17 1014.24 1014.43 1014.65 1014.88 1015.09 1015.26 1015.37 1015.42
1009.47 1009.38 1008.81 1008.81 1009.32 1008.93 1006.82 1004.96 1003.31 1001.66 1001.25 1002.84 1003.04 1003.17 1004.40 1006.57 1006.29 1007.09 1007.45 1007.21 1006.67 1007.81 1008.37 1008.91 1009.25 1009.58 1009.90 1010.35 1010.90 1011.34 1011.69 1011.88 1012.12 1012.60 1013.06 1013.37 1013.60 1013.79 1014.03 1014.12 1014.19 1014.33 1014.57 1014.75 1014.91 1015.10 1015.33 1015.43 1015.50
1009.57 1009.64 1009.83 1009.14 1008.71 1008.39 1006.49 1004.16 1002.09 1001.24 1000.79 1000.71 1003.34 1004.10 1004.96 1005.90 1005.99 1005.23 1006.35 1007.17 1007.20 1007.59 1008.00 1008.46 1009.06 1009.47 1009.90 1010.35 1010.76 1011.17 1011.65 1011.91 1012.15 1012.59 1013.03 1013.34 1013.66 1013.82 1013.87 1014.06 1014.20 1014.37 1014.61 1014.76 1014.94 1015.16 1015.33 1015.48 1015.60
1009.56 1009.37 1009.51 1008.75 1008.39 1006.75 1005.57 1003.20 1002.64 1001.40 1000.78 1000.15 1002.71 1004.81 1005.47 1005.07 1003.45 1003.64 1005.68 1006.23 1006.80 1007.80 1007.75 1008.16 1008.72 1009.35 1009.68 1010.13 1010.57 1011.00 1011.54 1011.83 1012.06 1012.53 1012.95 1013.29 1013.51 1013.79 1013.89 1014.03 1014.16 1014.46 1014.73 1014.84 1015.04 1015.27 1015.43 1015.61 1015.69
1009.55 1009.73 1009.58 1008.91 1007.73 1006.17 1004.57 1003.04 1002.23 1001.38 1000.80 1000.81 1001.54 1004.24 1004.66 1004.14 1003.53 1003.41 1004.56 1005.50 1006.69 1007.85 1007.65 1008.29 1008.86 1009.20 1009.56 1010.06 1010.42 1010.73 1011.31 1011.59 1012.01 1012.44 1012.80 1013.22 1013.37 1013.55 1013.79 1013.99 1014.20 1014.51 1014.73 1014.92 1015.11 1015.32 1015.54 1015.70 1015.75
1009.90 1009.33 1009.55 1008.96 1007.56 1005.63 1003.97 1002.68 1001.81 1001.15 1000.33 999.74 1001.97 1003.31 1004.18 1003.06 1004.04 1003.32 1004.51 1005.40 1006.75 1007.26 1007.58 1008.41 1009.03 1009.29 1009.57 1010.07 1010.44 1010.76 1011.18 1011.50 1011.90 1012.35 1012.61 1012.93 1013.32 1013.48 1013.65 1013.97 1014.29 1014.51 1014.68 1014.94 1015.17 1015.36 1015.55 1015.71 1015.74
1009.53 1009.57 1009.18 1008.55 1007.18 1005.32 1003.50 1002.43 1001.86 1000.97 1000.34 1000.19 1001.08 1002.22 1003.08 1003.13 1003.55 1003.00 1003.99 1005.21 1006.78 1007.50 1007.80 1008.36 1009.07 1009.57 1009.78 1010.05 1010.37 1010.80 1011.21 1011.52 1011.87 1012.25 1012.61 1012.80 1013.17 1013.44 1013.61 1013.85 1014.24 1014.44 1014.59 1014.81 1015.02 1015.22 1015.51 1015.70 1015.80
1008.89 1009.19 1008.93 1007.97 1006.76 1004.50 1003.21 1002.70 1002.07 1001.83 1000.68 1000.47 1000.77 1001.80 1003.12 1002.53 1002.74 1003.71 1004.43 1006.14 1006.91 1007.52 1008.38 1008.66 1008.94 1009.51 1009.95 1010.26 1010.52 1010.77 1011.14 1011.50 1011.88 1012.20 1012.48 1012.82 1013.09 1013.36 1013.66 1013.89 1014.20 1014.41 1014.52 1014.64 1014.88 1015.21 1015.47 1015.63 1015.67
1008.30 1008.68 1007.95 1007.15 1006.33 1004.58 1003.18 1003.03 1002.49 1002.35 1002.20 1001.43 1000.50 1001.37 1002.75 1003.40 1003.75 1004.75 1005.89 1006.52 1007.21 1007.68 1008.22 1008.82 1009.28 1009.56 1009.78 1010.36 1010.93 1011.02 1011.28 1011.69 1012.04 1012.34 1012.47 1012.79 1013.13 1013.37 1013.62 1013.84 1014.02 1014.25 1014.45 1014.63 1014.88 1015.20 1015.41 1015.50 1015.47
1007.99 1007.65 1006.80 1006.71 1005.84 1004.89 1004.03 1002.99 1002.54 1003.21 1003.04 1002.46 1003.78 1002.14 1003.16 1003.58 1004.19 1004.69 1005.84 1006.47 1006.70 1007.47 1008.05 1008.32 1009.13 1009.46 1009.67 1010.11 1010.90 1011.11 1011.23 1011.81 1012.15 1012.47 1012.62 1012.90 1013.11 1013.26 1013.34 1013.60 1013.79 1014.04 1014.34 1014.65 1014.85 1015.09 1015.23 1015.29 1015.38
1007.57 1006.60 1006.86 1006.07 1005.53 1005.11 1004.43 1003.80 1002.82 1003.00 1003.48 1003.88 1005.74 1006.96 1002.76 1003.23 1003.45 1003.91 1004.69 1005.30 1005.92 1006.68 1007.73 1007.98 1008.20 1008.88 1009.41 1010.01 1010.88 1011.07 1011.40 1011.97 1012.19 1012.38 1012.56 1012.83 1013.05 1013.21 1013.23 1013.48 1013.69 1014.00 1014.22 1014.55 1014.75 1014.99 1015.13 1015.13 1015.11
1007.53 1006.61 1006.51 1005.93 1005.02 1005.10 1004.89 1004.64 1003.75 1003.38 1003.65 1003.86 1005.35 1006.46 1006.52 1004.31 1003.90 1003.64 1004.05 1005.44 1005.94 1006.62 1007.04 1007.80 1007.96 1008.47 1008.92 1009.38 1010.12 1010.46 1010.99 1011.58 1012.05 1012.32 1012.48 1012.68 1013.01 1013.08 1013.06 1013.28 1013.45 1013.87 1013.99 1014.42 1014.60 1014.63 1014.55 1014.67 1014.51
1006.74 1006.66 1006.26 1005.63 1005.25 1005.25 1004.89 1004.97 1004.95 1003.97 1004.02 1003.62 1004.51 1005.14 1007.15 1006.79 1007.07 1006.77 1006.57 1007.13 1008.39 1006.07 1006.34 1006.66 1007.18 1007.60 1008.07 1008.76 1009.42 1009.85 1010.57 1011.04 1011.41 1011.94 1012.20 1012.41 1012.71 1012.96 1012.77 1012.92 1013.10 1013.45 1013.65 1013.95 1014.06 1013.98 1013.96 1013.99 1014.03
1006.25 1006.35 1006.02 1005.62 1005.09 1005.18 1005.29 1005.14 1005.66 1004.71 1004.40 1004.23 1005.03 1005.20 1005.89 1006.98 1007.50 1005.76 1006.58 1006.92 1006.79 1010.24 1006.44 1005.58 1006.70 1007.34 1007.82 1008.18 1008.63 1008.92 1009.40 1009.93 1010.66 1011.28 1011.68 1011.98 1012.19 1012.41 1012.59 1012.69 1012.90 1012.99 1013.13 1013.28 1013.52 1013.66 1014.00 1014.38 1014.34
1006.07 1006.20 1006.00 1005.26 1004.85 1005.40 1005.87 1006.02 1005.43 1005.54 1005.46 1004.58 1004.99 1005.07 1005.52 1006.43 1005.96 1004.53 1004.89 1006.21 1009.10 1009.38 1008.92 1008.30 1007.55 1007.43 1008.14 1008.61 1008.68 1008.50 1008.74 1009.30 1009.91 1010.29 1010.86 1011.36 1011.69 1011.81 1011.95 1012.30 1012.46 1012.33 1012.62 1012.87 1013.63 1014.19 1014.43 1013.77 1013.67
1005.82 1006.01 1005.67 1004.93 1005.13 1005.35 1006.18 1006.29 1006.00 1005.66 1006.06 1005.21 1005.04 1005.21 1005.44 1006.04 1006.73 1005.92 1005.78 1006.14 1006.63 1007.62 1008.65 1009.45 1008.50 1009.03 1008.29 1008.49 1008.38 1008.72 1008.79 1008.93 1009.31 1009.43 1010.12 1010.83 1011.20 1011.24 1011.42 1011.98 1012.24 1012.02 1012.32 1013.11 1013.71 1013.58 1013.89 1015.10 1013.70
1005.41 1005.26 1005.08 1005.27 1005.04 1005.58 1005.99 1006.83 1006.52 1005.96 1006.21 1005.82 1005.68 1005.23 1005.44 1005.48 1006.17 1006.04 1005.48 1005.25 1006.65 1006.65 1008.70 1008.00 1009.19 1010.17 1010.13 1008.65 1007.81 1008.32 1008.57 1008.50 1008.80 1008.95 1009.45 1010.05 1010.60 1010.85 1011.14 1011.70 1011.93 1011.99 1012.76 1012.84 1013.36 1014.12 1014.58 1014.49 1014.89
1004.67 1004.92 1004.86 1005.14 1005.46 1005.87 1006.39 1006.62 1006.49 1006.00 1006.18 1006.05 1005.64 1005.23 1005.27 1005.49 1005.21 1006.32 1005.93 1005.33 1005.79 1006.62 1006.23 1008.80 1010.84 1010.03 1010.30 1008.19 1008.27 1008.30 1008.68 1008.49 1008.39 1008.70 1009.13 1009.51 1010.10 1010.42 1010.79 1011.37 1011.73 1011.86 1012.59 1013.05 1013.42 1014.17 1014.57 1015.03 1013.93
1004.44 1004.44 1004.26 1004.62 1005.02 1006.15 1006.65 1007.05 1006.44 1005.86 1005.66 1005.81 1005.38 1005.42 1005.16 1005.30 1004.87 1004.56 1005.97 1005.46 1006.20 1006.64 1006.70 1007.42 1008.79 1009.63 1010.67 1008.76 1008.28 1008.42 1008.43 1008.21 1008.54 1008.68 1008.82 1009.31 1009.43 1009.81 1010.40 1010.99 1011.49 1011.71 1012.12 1012.63 1013.07 1013.48 1013.30 1013.33 1013.30
1003.97 1003.81 1003.88 1004.17 1004.91 1006.21 1006.80 1006.72 1006.79 1006.09 1005.72 1005.38 1005.16 1005.18 1005.34 1005.37 1004.89 1004.59 1006.03 1006.75 1006.08 1006.35 1006.61 1007.36 1007.62 1009.51 1009.15 1007.84 1007.21 1007.70 1007.85 1007.87 1008.18 1008.57 1008.82 1008.84 1009.08 1009.42 1010.02 1010.51 1011.01 1011.47 1011.64 1012.07 1012.41 1012.67 1013.03 1013.29 1013.19
1003.03 1003.02 1003.28 1003.95 1004.92 1005.64 1006.66 1007.02 1006.90 1006.13 1005.54 1004.94 1004.55 1004.50 1004.66 1004.91 1004.81 1005.27 1005.16 1006.13 1006.91 1006.24 1005.47 1006.43 1007.07 1006.79 1007.08 1006.30 1006.90 1007.35 1007.47 1007.96 1008.39 1008.49 1008.68 1008.67 1008.58 1008.95 1009.53 1010.19 1010.77 1011.25 1011.54 1011.77 1011.55 1012.08 1012.68 1013.12 1013.24
1002.01 1002.09 1002.71 1003.53 1004.64 1006.76 1007.21 1006.50 1006.33 1004.52 1004.79 1004.23 1003.79 1003.93 1003.97 1004.42 1004.60 1004.82 1004.67 1004.91 1005.07 1005.09 1005.32 1005.60 1005.41 1005.36 1005.64 1006.08 1006.74 1007.08 1007.34 1008.05 1008.28 1008.11 1008.02 1008.21 1008.53 1008.81 1009.06 1009.85 1010.21 1010.76 1011.39 1011.63 1011.40 1011.62 1011.90 1012.50 1013.16
1000.90 1001.57 1002.15 1003.10 1004.38 1006.64 1007.30 1006.87 1003.68 1003.59 1003.64 1002.73 1002.57 1002.70 1003.02 1004.03 1004.42 1003.90 1004.05 1004.15 1003.92 1004.07 1004.30 1004.41 1004.70 1004.93 1005.15 1005.79 1006.43 1006.86 1006.99 1007.55 1007.68 1007.80 1007.90 1008.11 1008.46 1008.61 1009.23 1009.93 1009.99 1010.48 1010.97 1011.35 1011.25 1011.47 1011.70 1012.08 1012.80
1000.55 1001.32 1002.08 1003.02 1004.72 1005.79 1004.89 1004.82 1002.31 1001.71 1000.95 1001.52 1001.72 1001.93 1002.37 1003.32 1003.65 1003.39 1003.51 1003.63 1003.63 1003.81 1004.20 1004.48 1005.03 1005.17 1005.54 1005.96 1006.21 1006.76 1007.17 1007.38 1007.62 1007.85 1008.07 1008.17 1008.39 1008.76 1009.47 1009.76 1009.82 1010.05 1010.48 1010.76 1011.12 1011.09 1011.48 1011.86 1012.32
999.94 1001.00 1002.33 1003.85 1005.48 1005.02 1003.57 1002.87 1000.36 999.23 998.82 999.52 1000.58 1001.30 1002.00 1002.70 1003.06 1003.46 1004.09 1004.02 1003.73 1003.96 1004.05 1004.46 1004.90 1005.44 1005.91 1006.43 1006.48 1006.83 1007.09 1007.31 1007.38 1007.65 1008.14 1008.72 1008.91 1009.24 1009.23 1009.72 1009.52 1009.80 1010.26 1010.46 1010.67 1011.03 1011.41 1011.78 1012.04
998.84 1000.16 1001.30 1003.05 1004.04 1002.88 1002.86 1001.11 998.45 998.48 998.01 999.01 1000.17 1000.86 1002.04 1002.99 1003.36 1004.29 1004.27 1004.28 1004.49 1004.68 1004.98 1005.24 1005.41 1005.94 1006.34 1006.73 1006.84 1006.63 1006.68 1007.22 1007.72 1007.91 1008.47 1009.06 1009.39 1009.27 1009.47 1009.16 1009.22 1009.32 1009.76 1010.24 1010.72 1010.99 1011.12 1011.47 1011.63
997.97 998.97 1000.58 1002.10 1003.84 1003.33 1001.70 999.80 997.41 997.24 998.20 999.30 1000.22 1000.91 1002.43 1003.13 1003.39 1004.04 1004.35 1004.68 1005.14 1005.56 1006.21 1006.23 1006.24 1006.87 1007.19 1007.37 1007.53 1007.66 1007.57 1007.99 1008.60 1008.84 1008.94 1008.92 1009.18 1008.96 1008.97 1008.72 1008.98 1009.01 1009.47 1010.12 1010.42 1010.89 1011.06 1011.24 1011.33
996.88 998.30 1000.49 1003.05 1004.99 1004.42 1002.46 1000.41 998.62 997.55 998.24 999.45 1000.66 1001.33 1002.11 1002.69 1003.21 1003.87 1004.35 1004.93 1005.45 1006.28 1006.66 1006.91 1007.34 1007.62 1008.00 1008.13 1008.13 1008.47 1008.68 1008.61 1008.74 1009.03 1009.45 1009.56 1009.16 1008.99 1009.05 1008.99 1009.37 1009.48 1009.64 1009.83 1010.18 1010.59 1010.63 1010.90 1010.83
996.45 997.80 999.50 1002.15 1004.47 1005.67 1005.16 1002.44 999.94 998.74 998.32 999.85 1001.04 1001.65 1002.39 1003.19 1003.68 1003.98 1004.69 1005.56 1006.34 1006.83 1007.40 1007.96 1008.16 1008.27 1008.47 1008.60 1008.68 1008.84 1008.97 1009.12 1009.07 1009.42 1009.78 1009.80 1009.67 1009.49 1009.78 1009.56 1009.91 1009.87 1009.76 1009.93 1010.01 1010.17 1010.21 1010.31 1010.23
996.07 997.32 998.85 1001.10 1003.51 1005.73 1006.39 1004.64 1000.95 999.99 999.49 1000.18 1001.00 1001.87 1002.57 1003.30 1004.09 1004.76 1005.51 1006.28 1006.87 1007.28 1007.96 1008.74 1009.00 1008.99 1009.24 1009.19 1009.28 1009.55 1009.35 1009.77 1009.85 1010.12 1009.85 1009.83 1009.78 1009.63 1009.88 1010.00 1009.78 1009.95 1009.99 1009.92 1010.02 1010.07 1009.72 1009.80 1009.74
Wind_Speed
8 9 5 1 3 1 8 8 8 11 11 11 15 18 13 7 12 0 5 17 22 16 12 14 17 17 18 17 16 15 16 16 16 15 13 13 13 13 13 13 13 13 13 12 12 11 11 10 9
4 8 3 3 2 3 9 9 18 15 4 22 20 20 14 3 8 4 4 14 21 17 12 13 17 18 19 18 17 16 15 16 16 15 14 13 12 12 12 12 12 12 12 12 11 11 10 9 8
7 5 2 4 4 8 7 12 17 14 7 2 10 8 7 12 8 14 16 18 17 16 13 15 18 19 19 18 18 17 16 16 16 15 14 14 13 12 11 11 11 11 11 11 11 10 9 8 6
3 2 4 1 10 13 20 19 12 20 8 1 15 10 1 8 18 13 21 21 18 13 12 18 21 19 20 19 19 18 17 16 16 16 15 14 14 12 11 10 10 9 9 10 10 9 7 6 5
1 3 4 4 10 13 18 20 19 13 5 8 10 14 6 5 12 19 23 20 19 14 12 13 19 20 20 20 19 19 18 17 17 16 15 14 13 12 11 10 9 8 8 9 9 8 7 6 5
2 3 2 6 15 18 18 17 18 14 5 8 12 14 9 11 8 24 21 19 18 17 15 13 16 19 19 19 19 19 18 17 17 16 15 14 13 12 11 9 9 8 8 7 8 7 7 6 6
6 2 6 9 16 18 19 18 13 8 7 15 16 8 4 12 15 22 21 19 18 15 14 12 11 14 18 18 18 18 17 16 16 15 13 13 12 11 11 10 9 8 8 8 8 8 7 6 5
5 3 9 10 14 24 19 16 5 8 7 8 9 9 15 16 19 18 17 18 16 15 12 11 11 11 11 11 17 17 17 16 15 14 13 12 12 11 10 10 9 8 8 8 8 7 7 7 7
5 8 12 15 16 16 15 4 4 9 10 11 7 13 12 13 12 8 16 15 13 13 13 11 11 10 10 9 11 14 16 14 14 12 13 11 5 6 8 8 10 9 9 8 7 7 6 7 8
7 8 17 9 12 13 14 5 6 5 11 10 20 19 17 14 10 6 11 15 16 15 13 12 11 10 10 9 9 7 9 7 6 6 7 5 6 6 9 9 11 12 10 9 8 7 8 7 4
9 17 8 11 20 8 8 6 5 7 6 5 8 19 20 21 15 11 13 17 17 19 14 15 13 11 12 9 6 4 4 4 4 7 7 5 5 5 5 3 4 4 9 4 5 5 4 6 5
12 17 13 15 17 7 5 10 9 4 3 10 11 13 3 19 26 26 18 15 20 20 19 16 14 13 12 9 8 7 6 5 4 5 7 5 3 4 5 4 6 5 4 5 5 4 6 7 8
18 14 15 19 18 2 4 6 7 10 7 10 13 17 9 12 8 8 9 14 25 19 22 21 19 17 10 13 10 9 8 7 7 6 7 6 5 5 5 5 5 5 4 5 5 6 7 7 7
7 12 13 17 20 4 2 6 7 13 10 7 9 12 12 6 14 15 10 12 25 25 12 22 22 16 12 12 13 11 9 10 8 8 9 10 6 5 4 5 5 5 5 5 5 5 4 5 4
11 10 14 19 20 3 5 6 7 15 13 14 8 10 11 13 12 10 12 16 15 7 12 10 7 10 10 10 10 10 9 10 9 9 10 12 8 7 6 5 4 5 5 5 4 8 9 2 3
15 9 14 19 13 4 9 15 11 18 15 11 8 7 11 11 8 11 8 7 17 12 18 14 10 14 6 6 7 5 8 9 8 9 9 12 10 7 6 4 4 4 3 6 4 4 4 12 6
13 17 17 12 9 6 8 4 12 18 17 15 8 9 9 13 11 5 9 11 9 12 10 10 15 14 16 5 3 4 5 5 5 6 9 14 12 10 6 3 3 3 5 5 6 2 3 7 10
13 12 14 17 10 4 6 8 11 18 20 20 8 11 10 11 15 7 9 12 12 10 23 16 6 21 20 6 5 3 3 2 3 4 6 12 10 9 6 5 4 3 5 3 3 6 7 11 6
8 15 13 9 6 6 10 8 10 17 17 20 8 9 9 11 9 10 8 14 18 15 19 18 11 16 14 9 7 4 5 3 2 3 7 8 10 10 8 5 5 4 4 7 9 8 7 0 3
19 16 19 7 10 11 10 16 16 17 15 21 12 9 9 8 8 12 8 5 15 21 17 18 16 27 24 13 8 4 5 4 5 5 6 8 9 9 7 7 6 5 4 5 4 3 1 1 1
23 21 13 8 11 18 7 8 8 15 25 22 16 10 13 9 7 6 7 12 8 10 20 16 20 28 15 8 5 1 1 2 2 4 4 6 10 8 7 6 5 3 2 4 4 5 6 3 1
23 21 16 16 13 11 8 6 7 14 24 24 17 14 13 8 7 6 7 8 4 18 15 14 10 9 8 9 8 8 5 6 4 5 5 6 9 9 7 8 7 4 4 4 3 5 4 4 3
20 13 12 14 8 6 20 10 15 22 25 23 17 13 13 11 9 12 8 6 4 8 10 8 8 7 6 6 5 4 4 4 2 2 6 5 6 8 7 7 6 6 5 5 6 5 5 4 3
16 15 18 7 13 13 20 19 17 14 28 20 13 14 16 17 10 12 2 5 6 8 7 6 8 6 5 6 7 5 3 5 1 2 3 4 4 5 5 6 7 6 6 5 5 5 5 5 4
18 12 9 5 2 14 12 17 15 11 24 25 21 16 12 16 18 6 4 6 8 9 9 7 6 4 5 4 5 5 4 2 4 4 4 2 2 1 5 5 5 5 5 6 4 4 4 5 4
20 14 7 9 11 16 16 14 22 21 14 16 18 15 10 10 8 10 9 9 9 10 10 8 8 7 7 7 5 3 3 2 2 3 4 4 2 3 6 7 6 7 6 4 3 3 4 5 5
19 15 9 3 6 1 5 8 1 12 14 15 18 13 10 9 12 14 13 13 11 10 9 9 9 9 8 8 6 6 6 7 7 5 5 5 2 4 7 6 8 7 7 7 6 4 5 5 5
15 9 8 4 3 5 6 4 4 12 17 17 16 14 11 10 14 12 11 11 12 11 10 10 10 9 7 8 8 8 8 8 7 6 7 6 5 7 5 4 2 1 4 6 6 5 6 6 6
11 9 4 10 8 1 3 9 4 4 23 16 14 11 10 13 13 12 10 9 9 11 10 7 8 9 8 7 8 9 8 8 8 7 6 5 5 6 7 6 6 6 5 6 5 7 7 8 8
9 9 13 8 8 7 3 9 10 6 19 18 14 10 9 10 11 9 14 12 11 10 9 8 8 8 8 8 8 7 8 7 7 6 7 6 6 5 3 2 3 4 5 4 4 7 7 7 8
Wind_Direction
300 297 286 325 26 136 261 252 275 298 348 69 77 102 111 50 88 300 65 126 128 132 140 135 137 137 135 134 133 132 131 127 125 124 124 122 117 110 110 111 111 107 108 107 105 104 101 99 96
309 319 293 242 148 280 268 257 254 256 206 102 88 112 94 70 107 253 142 139 133 138 143 141 143 142 141 140 139 138 136 134 132 131 131 127 121 120 120 118 113 110 112 112 112 110 108 109 105
282 228 34 174 197 232 259 266 275 305 310 255 98 52 116 158 190 145 155 142 132 143 147 146 144 143 143 144 143 142 142 140 137 136 136 135 138 137 131 124 120 121 127 126 123 121 122 123 117
285 343 302 225 256 258 235 261 288 285 305 255 125 91 338 223 161 168 157 140 135 148 142 148 145 148 147 148 147 146 148 146 142 145 147 149 146 145 137 132 128 131 138 135 132 132 130 130 128
198 280 230 242 255 263 269 276 286 289 221 253 114 161 177 247 167 153 144 139 146 148 136 144 150 149 149 151 152 150 152 149 150 153 153 153 152 150 145 140 134 141 143 145 145 142 143 148 150
278 158 260 233 252 267 270 271 277 288 276 260 100 122 191 239 239 148 147 147 154 147 140 150 153 150 151 153 153 153 155 154 155 156 156 153 155 154 150 145 145 152 152 157 157 159 166 172 178
208 253 235 243 265 272 260 265 275 278 332 307 129 115 163 179 200 147 150 151 140 140 141 146 151 154 154 154 155 155 155 155 155 157 157 156 160 158 157 154 161 163 165 173 177 179 186 194 206
210 225 256 254 250 263 271 286 356 356 282 283 127 158 180 169 150 145 142 130 138 141 148 150 149 153 152 156 157 156 155 155 157 159 158 161 163 163 164 166 175 176 180 188 194 197 201 214 222
264 236 238 240 248 259 281 346 44 347 336 349 317 126 98 88 80 128 123 136 143 145 155 157 156 156 148 148 163 153 153 156 160 163 163 162 161 168 174 180 189 190 193 199 205 211 217 231 238
204 233 233 244 262 265 299 279 245 8 14 311 3 91 107 97 92 64 165 162 158 155 165 162 165 162 152 156 157 151 156 160 163 165 168 168 178 180 185 196 199 194 200 205 211 219 228 235 239
245 235 247 227 255 277 340 317 224 115 322 352 13 309 141 129 129 158 227 177 167 163 172 174 165 165 163 153 158 153 149 162 176 174 173 186 197 197 201 191 192 184 201 200 203 220 228 226 233
239 242 242 260 265 262 337 322 295 189 196 337 9 13 223 158 172 186 203 171 169 171 170 172 165 172 178 148 163 164 160 169 175 184 175 185 208 202 199 176 181 181 196 198 206 204 212 220 231
231 233 241 255 265 306 14 318 319 284 63 335 356 344 27 174 211 331 60 43 10 178 172 169 169 179 167 159 167 166 170 173 178 175 182 187 205 217 203 187 179 185 184 193 210 208 213 221 226
224 237 240 250 256 36 166 302 16 307 335 321 328 326 353 219 196 212 73 63 34 335 187 165 170 178 158 168 172 174 170 177 176 181 189 197 199 212 208 201 182 193 186 192 212 219 223 246 241
220 230 240 248 251 135 65 306 263 298 300 288 299 317 327 347 334 302 140 116 130 346 333 26 192 168 155 177 179 178 173 176 179 184 187 195 201 205 207 207 220 203 183 185 39 15 344 330 207
232 232 233 235 236 164 126 259 279 287 294 276 275 302 304 314 325 273 52 93 94 66 355 341 8 341 156 158 160 185 185 175 183 180 182 194 206 200 196 196 201 225 62 106 95 87 16 311 303
226 225 231 230 189 167 148 204 255 267 284 285 303 281 285 297 307 293 194 166 142 114 51 8 322 319 305 183 146 172 186 165 177 162 182 193 199 205 185 184 232 130 120 119 129 100 140 227 280
214 221 220 224 197 113 258 236 238 257 258 275 259 263 269 282 288 140 203 175 175 194 154 148 275 291 300 213 174 186 232 196 190 179 169 181 192 196 176 185 199 145 130 119 157 155 196 217 230
245 237 220 211 168 169 237 256 251 257 265 255 257 241 259 271 282 343 168 174 145 158 146 159 157 294 265 224 185 184 200 202 187 187 167 180 185 180 176 182 202 204 180 182 185 205 185 61 56
244 242 236 187 180 184 212 234 242 260 252 261 242 226 251 268 304 316 137 273 161 175 172 165 166 199 240 217 184 179 185 205 195 189 185 185 179 180 169 175 198 202 193 230 214 167 132 145 138
235 241 216 185 192 206 196 263 270 273 249 241 231 224 229 231 267 298 294 181 221 226 181 192 196 188 194 174 167 188 112 45 181 192 205 192 189 172 169 174 177 222 197 257 192 166 157 169 347
228 233 200 207 221 234 191 256 233 251 253 237 216 211 221 221 236 261 245 289 219 204 191 186 171 158 168 167 180 184 169 187 215 191 196 183 176 172 178 182 180 180 164 195 211 182 152 137 179
231 234 221 200 224 170 222 244 235 219 228 221 209 205 211 213 200 247 214 273 209 167 173 177 173 167 176 159 146 171 160 191 250 175 176 166 167 164 169 180 157 174 161 204 170 147 141 146 144
222 227 227 165 227 232 226 204 244 229 213 213 201 207 208 219 225 247 253 231 103 108 105 141 162 175 153 177 169 148 71 222 200 52 183 168 154 146 188 183 175 169 177 185 187 162 165 166 169
214 209 222 187 100 234 269 218 232 225 217 196 192 199 197 199 220 226 151 73 61 53 60 59 101 98 169 158 179 135 96 32 11 308 162 142 133 169 183 210 172 165 189 180 159 162 188 191 191
222 205 158 163 195 235 241 237 234 233 209 174 177 180 170 186 161 137 110 87 64 49 37 70 80 77 70 54 69 80 44 27 19 100 96 126 178 202 222 202 183 171 162 177 177 192 203 201 213
221 222 190 146 356 232 216 231 28 204 158 166 178 179 137 158 119 109 96 83 75 70 56 59 68 72 73 64 66 63 70 70 52 49 89 75 125 243 230 195 181 177 173 195 193 208 225 208 224
205 177 179 31 67 319 305 188 146 136 158 160 145 139 134 115 103 106 102 97 84 72 74 64 65 69 65 63 53 49 47 54 58 52 38 18 31 20 43 71 51 154 207 205 196 217 229 214 228
200 203 139 119 159 272 352 290 324 227 155 134 125 124 121 114 118 114 109 96 87 80 61 65 65 62 52 63 59 49 44 38 44 49 46 35 21 38 4 18 339 317 279 248 227 229 228 223 232
198 185 192 159 168 122 144 279 318 39 126 125 118 116 112 117 120 113 109 110 101 92 81 74 56 54 47 36 45 47 44 38 36 14 7 356 353 348 341 317 358 317 307 289 270 264 252 233 237